Torna al catalogo

CZ-6A DEB

AttivoPO
NORAD 60648·DEBRIS·🇨🇳 China

Lanciato Aug 6, 2024 da Taiyuan Satellite Launch Center

Loading…

Prossimi Passaggi (prossime 24 ore)

TLE

AggiornatoSource: Space-Track

Epoca: Sep 14, 2026, 11:54 UTC

1 60648U 24140AZ  26257.49630156  .00001091  00000-0  19264-3 0  9997
2 60648  89.0754 266.4083 0125676 280.4492  78.2579 14.61701269111901

Traccia CZ-6A DEB in tempo reale con AllMySat

Download on the App Store